Weather History for O'Neill, NE

Change the Weather History Date:

Thursday, June 12, 2014

  Actual Average Record
Temperature  
Mean Temperature 60 °F -  
Max Temperature 68 °F 81 °F 99 °F (1990)
Min Temperature 52 °F 54 °F 43 °F (1969)
Degree Days  
Heating Degree Days 5    
Growing Degree Days 10 (Base 50)    
Moisture  
Dew Point 43 °F    
Average Humidity 55    
Maximum Humidity 85    
Minimum Humidity 31    
Precipitation  
Precipitation 0.00 in - - ()
Sea Level Pressure  
Sea Level Pressure 30.08 in    
Wind  
Wind Speed 14 mph (NNW)    
Max Wind Speed 24 mph    
Max Gust Speed 31 mph    
Visibility 10 miles    
Events      
Averages and records for this station are not official NWS values.
T = Trace of Precipitation, MM = Missing Value Source: NWS Daily Summary

Daily Weather History Graph

Daily Weather History Graph

Search for Another Location

Airport:

Trip Planner

Search our weather history database for the weather conditions in past years. The results will help you decide how hot, cold, wet, or windy it might be!

Date:

Astronomy

Jun. 12, 2014 Rise Set
Actual Time 5:57 AM CDT 9:12 PM CDT
Civil Twilight 5:22 AM CDT 9:47 PM CDT
Nautical Twilight 4:37 AM CDT 10:32 PM CDT
Astronomical Twilight 3:43 AM CDT 11:26 PM CDT
Moon 8:44 PM CDT (6/12) 5:41 AM CDT (6/12)
Length of Visible Light 16h 24m
Length of Day
15h 15m
Full, 100% of the Moon is Illuminated
Jun 12
Full
Jun 12
Full
Jun 19
Last Quarter
Jun 27
New
Jul 5
First Quarter

Hourly Weather History & Observations

Time (CDT) Temp. Dew Point Humidity Pressure Visibility Wind Dir Wind Speed Gust Speed Precip Events Conditions
12:15 AM 58.1 °F 50.2 °F 75% 30.00 in 10.0 mi NW 16.1 mph 20.7 mph N/A   Mostly Cloudy
12:35 AM 56.8 °F 50.0 °F 78% 30.00 in 10.0 mi NW 16.1 mph 19.6 mph N/A   Scattered Clouds
12:55 AM 57.7 °F 50.2 °F 76% 30.02 in 10.0 mi NW 12.7 mph - N/A   Mostly Cloudy
1:15 AM 57.6 °F 50.0 °F 76% 30.02 in 10.0 mi NW 16.1 mph - N/A   Overcast
1:35 AM 57.2 °F 49.6 °F 76% 30.00 in 10.0 mi NW 10.4 mph - N/A   Overcast
1:55 AM 56.1 °F 49.1 °F 77% 30.00 in 10.0 mi NW 15.0 mph - N/A   Overcast
2:15 AM 55.8 °F 49.1 °F 78% 30.00 in 10.0 mi NW 13.8 mph 18.4 mph N/A   Overcast
2:35 AM 55.6 °F 49.5 °F 80% 30.00 in 10.0 mi NW 13.8 mph 18.4 mph N/A   Overcast
2:55 AM 56.3 °F 49.5 °F 78% 30.00 in 10.0 mi NW 16.1 mph - N/A   Overcast
3:15 AM 56.1 °F 49.5 °F 78% 30.01 in 10.0 mi NW 12.7 mph - N/A   Overcast
3:35 AM 55.2 °F 49.1 °F 80% 30.01 in 10.0 mi NW 17.3 mph 20.7 mph N/A   Mostly Cloudy
3:55 AM 54.9 °F 49.1 °F 81% 30.01 in 10.0 mi NNW 16.1 mph 24.2 mph N/A   Overcast
4:15 AM 53.6 °F 48.7 °F 84% 30.02 in 10.0 mi NW 12.7 mph 19.6 mph N/A   Mostly Cloudy
4:35 AM 52.9 °F 48.4 °F 85% 30.03 in 10.0 mi NW 13.8 mph - N/A   Scattered Clouds
5:15 AM 52.9 °F 48.0 °F 84% 30.05 in 10.0 mi NW 15.0 mph 19.6 mph N/A   Scattered Clouds
5:35 AM 53.6 °F 47.8 °F 81% 30.06 in 10.0 mi NNW 18.4 mph 21.9 mph N/A   Mostly Cloudy
5:55 AM 53.6 °F 47.3 °F 79% 30.07 in 10.0 mi NNW 12.7 mph 21.9 mph N/A   Overcast
6:15 AM 53.6 °F 48.2 °F 82% 30.08 in 10.0 mi NW 15.0 mph 20.7 mph N/A   Overcast
6:35 AM 53.2 °F 46.6 °F 78% 30.09 in 10.0 mi NNW 13.8 mph 23.0 mph N/A   Overcast
6:55 AM 53.1 °F 46.2 °F 78% 30.09 in 10.0 mi NNW 16.1 mph 20.7 mph N/A   Overcast
7:15 AM 53.2 °F 46.4 °F 78% 30.10 in 10.0 mi NW 13.8 mph - N/A   Scattered Clouds
7:35 AM 53.8 °F 46.4 °F 76% 30.09 in 10.0 mi NNW 11.5 mph - N/A   Clear
7:55 AM 54.7 °F 46.0 °F 73% 30.09 in 10.0 mi NNW 11.5 mph - N/A   Clear
8:35 AM 56.8 °F 45.3 °F 65% 30.10 in 10.0 mi NNW 17.3 mph 23.0 mph N/A   Clear
8:55 AM 58.3 °F 45.3 °F 62% 30.10 in 10.0 mi NNW 16.1 mph - N/A   Clear
9:35 AM 60.4 °F 46.0 °F 59% 30.10 in 10.0 mi NW 15.0 mph - N/A   Clear
9:55 AM 60.8 °F 45.3 °F 57% 30.10 in 10.0 mi NNW 18.4 mph 24.2 mph N/A   Scattered Clouds
10:15 AM 61.0 °F 43.9 °F 53% 30.10 in 10.0 mi NNW 20.7 mph 28.8 mph N/A   Scattered Clouds
10:35 AM 61.7 °F 42.3 °F 49% 30.11 in 10.0 mi NW 24.2 mph 31.1 mph N/A   Clear
10:55 AM 61.9 °F 41.7 °F 48% 30.11 in 10.0 mi NW 19.6 mph 28.8 mph N/A   Clear
11:15 AM 63.5 °F 42.1 °F 46% 30.11 in 10.0 mi NW 20.7 mph 24.2 mph N/A   Clear
11:35 AM 62.8 °F 40.1 °F 43% 30.11 in 10.0 mi NW 19.6 mph 28.8 mph N/A   Clear
11:55 AM 63.7 °F 41.5 °F 44% 30.11 in 10.0 mi NW 20.7 mph 26.5 mph N/A   Clear
12:15 PM 64.2 °F 40.6 °F 42% 30.11 in 10.0 mi NW 19.6 mph 29.9 mph N/A   Clear
12:35 PM 64.6 °F 41.0 °F 42% 30.12 in 10.0 mi NNW 21.9 mph 29.9 mph N/A   Clear
12:55 PM 64.9 °F 40.3 °F 40% 30.11 in 10.0 mi NNW 23.0 mph 28.8 mph N/A   Clear
1:15 PM 65.5 °F 40.6 °F 40% 30.11 in 10.0 mi NNW 23.0 mph 31.1 mph N/A   Clear
1:35 PM 66.2 °F 40.6 °F 39% 30.11 in 10.0 mi NNW 19.6 mph 28.8 mph N/A   Clear
1:55 PM 66.7 °F 40.8 °F 39% 30.11 in 10.0 mi NNW 17.3 mph 26.5 mph N/A   Clear
2:15 PM 66.9 °F 41.2 °F 39% 30.11 in 10.0 mi NNW 19.6 mph 26.5 mph N/A   Clear
2:35 PM 67.1 °F 41.9 °F 40% 30.10 in 10.0 mi NW 12.7 mph 24.2 mph N/A   Clear
2:55 PM 67.3 °F 42.1 °F 40% 30.10 in 10.0 mi NNW 18.4 mph 26.5 mph N/A   Clear
3:15 PM 67.5 °F 40.1 °F 37% 30.10 in 10.0 mi NNW 18.4 mph 25.3 mph N/A   Clear
3:35 PM 68.0 °F 39.2 °F 35% 30.10 in 10.0 mi NNW 18.4 mph 23.0 mph N/A   Clear
3:55 PM 68.4 °F 41.4 °F 37% 30.10 in 10.0 mi NNW 16.1 mph 24.2 mph N/A   Clear
4:15 PM 68.7 °F 40.8 °F 36% 30.10 in 10.0 mi North 16.1 mph 25.3 mph N/A   Clear
4:35 PM 68.5 °F 39.0 °F 34% 30.10 in 10.0 mi NNW 15.0 mph 23.0 mph N/A   Clear
4:55 PM 68.5 °F 39.4 °F 34% 30.10 in 10.0 mi North 13.8 mph 26.5 mph N/A   Clear
5:15 PM 68.7 °F 38.3 °F 33% 30.10 in 10.0 mi North 13.8 mph 17.3 mph N/A   Clear
5:35 PM 68.4 °F 37.9 °F 33% 30.10 in 10.0 mi NNW 13.8 mph 21.9 mph N/A   Clear
5:55 PM 68.0 °F 37.2 °F 32% 30.09 in 10.0 mi North 9.2 mph 18.4 mph N/A   Clear
6:15 PM 68.0 °F 37.0 °F 32% 30.09 in 10.0 mi North 11.5 mph 17.3 mph N/A   Clear
6:35 PM 67.6 °F 36.3 °F 32% 30.09 in 10.0 mi North 6.9 mph - N/A   Clear
6:55 PM 67.3 °F 35.4 °F 31% 30.09 in 10.0 mi North 10.4 mph - N/A   Clear
7:15 PM 67.1 °F 36.9 °F 33% 30.09 in 10.0 mi North 11.5 mph - N/A   Clear
7:35 PM 66.4 °F 36.7 °F 33% 30.09 in 10.0 mi North 10.4 mph - N/A   Clear
7:55 PM 65.7 °F 35.1 °F 32% 30.09 in 10.0 mi North 8.1 mph - N/A   Clear
8:15 PM 64.8 °F 35.4 °F 34% 30.09 in 10.0 mi North 5.8 mph - N/A   Clear
8:35 PM 62.6 °F 36.1 °F 37% 30.10 in 10.0 mi North 4.6 mph - N/A   Clear
8:55 PM 60.8 °F 36.7 °F 41% 30.10 in 10.0 mi North 3.5 mph - N/A   Clear
9:15 PM 60.4 °F 36.5 °F 41% 30.10 in 10.0 mi Calm Calm - N/A   Clear
9:35 PM 59.7 °F 36.9 °F 43% 30.10 in 10.0 mi Calm Calm - N/A   Clear
9:55 PM 58.3 °F 36.9 °F 45% 30.11 in 10.0 mi Calm Calm - N/A   Clear
10:15 PM 57.0 °F 38.8 °F 51% 30.12 in 10.0 mi Calm Calm - N/A   Clear
10:35 PM 55.0 °F 40.6 °F 58% 30.13 in 10.0 mi Calm Calm - N/A   Clear
10:55 PM 54.1 °F 40.8 °F 61% 30.12 in 10.0 mi Calm Calm - N/A   Clear
11:15 PM 54.0 °F 40.8 °F 61% 30.12 in 10.0 mi West 3.5 mph - N/A   Clear
11:35 PM 52.7 °F 41.0 °F 64% 30.13 in 10.0 mi West 3.5 mph - N/A   Clear
11:55 PM 52.2 °F 42.3 °F 69% 30.13 in 10.0 mi West 3.5 mph - N/A   Clear